Terminal Aerodrome Forecast
Issued by NWS Wakefield, VA

Home | Current Version | Previous Version | Text Only | Print | Product List | Glossary On
Versions: 1 2 3 4 5 6 7 8 9 10 11 12 13 14 15 16 17 18 19
000
FTUS41 KAKQ 232105 AAB
TAFRIC
TAF AMD
KRIC 232105Z 2321/2418 03007KT P6SM -RA BKN045 OVC090
     FM232200 04006KT P6SM VCSH BKN060
     FM240600 01005KT P6SM BKN035=

USA.gov is the U.S. government's official web portal to all federal, state and local government web resources and services.